"Pseudo-MPEC" for P11JT4X

Created 2023 Sep 19 12:22:28 UT using Find_Orb

Click here for an explanation of pseudo-MPECs

 
 Astrometry: 
     P11JT4X  C2023 09 13EqKfAstrometry*WKB#-\Ek6Hy?i??R76?0np5!o,M[6^,Y;muQmF52
     P11JT4X  C2023 09 13@Aeh@*W9#cPn\;b,PcU]j6M(v,Cj[N7UoC5aT(dqYXTtt:$8p;(,F52
     P11JT4X  C2023 09 13i1]O.Me]d@,@dv'r$lj]$x1S8jk.+soN^,$mYC*wc6='fEkkD(IBF52
     P11JT4X  C2023 09 13nVZ^GCCulrYxvL1s0b\GY3$XIaM^/)rG+ojab_98f$1vfHwFfe$^F52
     P11JT4X  C2023 09 16C(^U^G8VnC_IA!c[:O9%%M#9B^Q?fQXu5%4Ft1L35m4x((MB.,5/F52
     P11JT4X  C2023 09 16\)+@ZK-2)\!bJ!\\'IqO^I1@P-(\/FE!Qf5sG_/#Hredacted;ZXF52
     P11JT4X* C2023 09 18*:.gCF6Tffo%gHKh7#Vd%s\dSnHIbVj+Z:iV8#click[YK,!%wX\F51
     P11JT4X  C2023 09 18a]x5sbBBdl*A66wq*@K`XNu7T\lYYK;A.9V\Ux$@Db;5R8`\Y1vkF51
     P11JT4X  C2023 09 18`r]nTOM3C.c6Elq#f;?'Pr?6TR+D#'0WV7DWZS@qK?=Bv]^;dhg]F51
     P11JT4X  C2023 09 18Yvj5'4Q*;a;Kx_\3lV*u!`K^xAA.9T^)ie=tI2[d83$tFhereJQ*F51
     P11JT4X  C2023 09 18h+),C[MEV5_dthS9`'cL'dP_9P0D[RJ@5Vdq]/'snlG7y`Q'##C+F51
     P11JT4X KC2023 09 19BMj5$TY_-]forYBnCmQSu$!A%l@@CGC!Eexplanation(wrM2v'EH21
     P11JT4X KC2023 09 195h(oev82(Ea`!(fmI`kJ]FIfCBm/rNT.=6W\gInIo0/p8O=;5b@sH21
     P11JT4X KC2023 09 19.i9+e,n^4FQ9#gZL6)AF8k8Bc.1%(^hqQs7]BurDA#]DE=J5l[97H21

Station data:
(F51) Pan-STARRS 1, Haleakala  (N20.707234 W156.255910)  US/Hawaii.
   Observers J. Bulger, T. Lowe, A. Schultz, M. Willman. Measurers K.
   Chambers, S. Chastel, T. de Boer, L. Denneau, J. Fairlamb, H. Flewelling,
   M. Huber, C.-C. Lin, E. Magnier, Y. Ramanjooloo, R. Wainscoat, R. Weryk.
   1.8-m Ritchey-Chrétien + CCD.
(F52) Pan-STARRS 2, Haleakala  (N20.707382 W156.255910)  US/Hawaii.
   Observers J. Bulger, T. Dukes, T. Lowe, A. Schultz, M. Willman. Measurers
   K. Chambers, S. Chastel, T. de Boer, L. Denneau, J. Fairlamb, H.
   Flewelling, M. Huber, C.-C. Lin, E. Magnier, Y. Ramanjooloo, R. Wainscoat,
   R. Weryk. 1.8-m Ritchey-Chrétien + CCD.
(H21) Astronomical Research Observatory, Westfield  (N39.483054 W87.968270)
   US/Illinois.  Observer R. Holmes. Measurers S. Foglia, L. Buzzi, T.
   Linder, R. Holmes. 0.76-m f/3.0 astrograph + CCD0.81-m f/4.0 astrograph +
   CCD0.61-m f/4.5 astrograph + CCD0.40-m f/5.32 astrograph + CCD.

Orbital elements:  P11JT4X
   Perihelion 2022 May 21.23393 +/- 4.88 TT =  5:36:51 (JD 2459720.73393)
Epoch 2023 Sep 19.0 TT = JDT 2460206.5   Earth MOID: 0.8889      AutoNEOCP
M 171.63267032 +/- 1.7              (J2000 ecliptic)
n   0.35332370 +/- 0.000249         Peri.  247.57619 +/- 1.4
a   1.98162221 +/- 0.00093          Node   292.52361 +/- 0.12
e   0.0786944 +/- 0.00123           Incl.   17.07347 +/- 0.039
P   2.79                   H 19.47  G  0.15   U  7.3
q 1.82567954 +/- 0.00159    Q 2.13756487 +/- 0.00345
From 14 observations 2023 Sept. 13-19; mean residual 0".22
Residuals in arcseconds: 
230913 F52  .08+  .00     230916 F52  .12-  .13+    230918 F51  .24+  .06-    
230913 F52  .01-  .01+    230918 F51  .13-  .01+    230919 H21  .76-  .18+    
230913 F52  .02-  .14-    230918 F51  .05+  .13-    230919 H21  .33-  .23+    
230913 F52  .01-  .09+    230918 F51  .10+  .09-    230919 H21  .60-  .16+    
230916 F52  .02-  .01-    230918 F51  .25+  .03+    

Ephemerides (geocentric):
Date (UTC) HH   RA             Dec           delta  r     elong  mag " sig PA
---- --------  ------------   ------------  ------ ------ -----  --- --------
2023 09 19 12  22 32 41.553   +20 14 36.37  1.1972 2.1362 151.8 22.3 .163 160
2023 09 19 13  22 32 38.700   +20 14 24.12  1.1972 2.1362 151.8 22.3 .170 160
2023 09 19 14  22 32 35.848   +20 14 11.84  1.1973 2.1362 151.8 22.3 .176 160
2023 09 19 15  22 32 32.999   +20 13 59.54  1.1974 2.1362 151.8 22.3 .183 160
2023 09 19 16  22 32 30.152   +20 13 47.21  1.1975 2.1362 151.8 22.3 .190 160
2023 09 19 17  22 32 27.308   +20 13 34.84  1.1976 2.1362 151.8 22.3 .196 159
2023 09 19 18  22 32 24.466   +20 13 22.45  1.1977 2.1362 151.7 22.3 .203 159
2023 09 19 19  22 32 21.626   +20 13 10.03  1.1978 2.1362 151.7 22.3 .210 159
2023 09 19 20  22 32 18.789   +20 12 57.59  1.1979 2.1362 151.7 22.3 .217 159
2023 09 19 21  22 32 15.954   +20 12 45.11  1.1980 2.1362 151.7 22.3 .224 159
2023 09 19 22  22 32 13.121   +20 12 32.61  1.1981 2.1362 151.7 22.3 .231 159
2023 09 19 23  22 32 10.291   +20 12 20.07  1.1982 2.1362 151.7 22.3 .238 159
2023 09 20 00  22 32 07.463   +20 12 07.51  1.1983 2.1363 151.7 22.3 .246 159
2023 09 20 01  22 32 04.638   +20 11 54.92  1.1983 2.1363 151.6 22.3 .253 159
2023 09 20 02  22 32 01.814   +20 11 42.30  1.1984 2.1363 151.6 22.3 .260 159
2023 09 20 03  22 31 58.994   +20 11 29.66  1.1985 2.1363 151.6 22.3 .268 159
2023 09 20 04  22 31 56.175   +20 11 16.99  1.1986 2.1363 151.6 22.3 .275 159
2023 09 20 05  22 31 53.360   +20 11 04.28  1.1987 2.1363 151.6 22.3 .283 159
2023 09 20 06  22 31 50.546   +20 10 51.55  1.1988 2.1363 151.6 22.3 .291 159
2023 09 20 07  22 31 47.735   +20 10 38.80  1.1989 2.1363 151.5 22.3 .299 159
2023 09 20 08  22 31 44.927   +20 10 26.01  1.1990 2.1363 151.5 22.3 .306 159
2023 09 20 09  22 31 42.120   +20 10 13.20  1.1991 2.1363 151.5 22.3 .314 159
2023 09 20 10  22 31 39.317   +20 10 00.36  1.1992 2.1363 151.5 22.3 .322 158
2023 09 20 11  22 31 36.515   +20 09 47.49  1.1993 2.1363 151.5 22.3 .330 158
2023 09 20 12  22 31 33.717   +20 09 34.59  1.1994 2.1363 151.5 22.3 .339 158
2023 09 20 13  22 31 30.920   +20 09 21.67  1.1995 2.1363 151.4 22.3 .347 158
2023 09 20 14  22 31 28.126   +20 09 08.72  1.1996 2.1363 151.4 22.3 .355 158
2023 09 20 15  22 31 25.335   +20 08 55.74  1.1997 2.1363 151.4 22.3 .364 158
2023 09 20 16  22 31 22.546   +20 08 42.73  1.1998 2.1363 151.4 22.3 .372 158
2023 09 20 17  22 31 19.760   +20 08 29.70  1.1999 2.1363 151.4 22.3 .381 158
2023 09 20 18  22 31 16.976   +20 08 16.64  1.2000 2.1363 151.3 22.3 .389 158
2023 09 20 19  22 31 14.194   +20 08 03.55  1.2001 2.1363 151.3 22.3 .398 158
2023 09 20 20  22 31 11.415   +20 07 50.43  1.2002 2.1363 151.3 22.3 .407 158
2023 09 20 21  22 31 08.639   +20 07 37.29  1.2003 2.1364 151.3 22.3 .415 158
2023 09 20 22  22 31 05.865   +20 07 24.12  1.2004 2.1364 151.3 22.3 .424 158
2023 09 20 23  22 31 03.094   +20 07 10.92  1.2005 2.1364 151.3 22.3 .433 158
2023 09 21 00  22 31 00.325   +20 06 57.70  1.2006 2.1364 151.2 22.3 .442 158
2023 09 21 01  22 30 57.558   +20 06 44.45  1.2007 2.1364 151.2 22.3 .451 158
2023 09 21 02  22 30 54.794   +20 06 31.17  1.2008 2.1364 151.2 22.3 .461 158
2023 09 21 03  22 30 52.033   +20 06 17.87  1.2009 2.1364 151.2 22.3 .470 157
2023 09 21 04  22 30 49.274   +20 06 04.54  1.2010 2.1364 151.2 22.3 .479 157
2023 09 21 05  22 30 46.518   +20 05 51.18  1.2011 2.1364 151.2 22.3 .489 157
2023 09 21 06  22 30 43.765   +20 05 37.80  1.2012 2.1364 151.1 22.3 .498 157
2023 09 21 07  22 30 41.014   +20 05 24.38  1.2013 2.1364 151.1 22.3 .508 157
2023 09 21 08  22 30 38.265   +20 05 10.95  1.2015 2.1364 151.1 22.3 .517 157
2023 09 21 09  22 30 35.519   +20 04 57.48  1.2016 2.1364 151.1 22.3 .527 157
2023 09 21 10  22 30 32.776   +20 04 43.99  1.2017 2.1364 151.1 22.3 .537 157
2023 09 21 11  22 30 30.035   +20 04 30.48  1.2018 2.1364 151.0 22.3 .547 157